Location: Newark
(38.0892°N, 27.7378°E)
Time: 01:45:44
(UTC+00:00)

N. Korean satellite - Pass Details

Date: 18 December 2019
Orbit: 454 x 507 km, 97.2° (Epoch: 23 January)

Event Time Altitude Azimuth Distance (km) Brightness Sun altitude
Rises 04:44:48 0° 355° (N) 2,506 9.9 -7.0°
Reaches altitude 10° 04:47:14 10° 338° (NNW) 1,617 8.8 -6.5°
Maximum altitude 04:49:49 20° 290° (WNW) 1,122 7.8 -6.1°
Drops below altitude 10° 04:52:22 10° 241° (WSW) 1,594 8.8 -5.6°
Sets 04:54:45 0° 224° (SW) 2,458 10.0 -5.2°
